User: anonymous   Login
Location: Bourg-d�Oueil
(42.8588°N, 0.4991°E)
Time: 20:27:54
(UTC+00:00)
Language:

Cosmos 1459 Rocket - Orbit

View from above orbital plane
View from above orbital plane
View from above satellite
View from above satellite

Ground track
Ground track

The orbit data is extracted from the following two-line orbital elements,

1 14059U 83042B   21270.47054397  .00000052  00000-0  36028-4 0  9997
2 14059  82.9749 341.4699 0042411 193.9831 166.0156 13.78741699930891
Epoch (UTC): 27 September 2021 11:17:34
Eccentricity: 0.0042411
inclination: 82.9749°
perigee height: 937 km
apogee height: 999 km
right ascension of ascending node: 341.4699°
argument of perigee: 193.9831°
revolutions per day: 13.78741699
mean anomaly at epoch: 166.0156°
orbit number at epoch: 93089

The dashed part of the orbit path shows where the satellite is in the earth's shadow,  

DLR